Location: LDNL
(36.4545°S, 141.6685°E)
Time: 04:24:41
(UTC+11:00)

A-11 Canister half - Pass Details

Date: 12 August 2022
Orbit: 1524 x 1684 km, 47.3° (Epoch: 05 October)

Event Time Altitude Azimuth Distance (km) Brightness Sun altitude
Rises 19:11:49 0° 277° (W) 4,694 13.5 -15.4°
Reaches altitude 10° 19:15:01 10° 272° (W) 3,706 12.4 -16.1°
Maximum altitude 19:24:03 51° 197° (SSW) 1,865 9.5 -17.9°
Enters shadow 19:30:49 19° 128° (SE) 3,052 10.1 -19.2°
Drops below altitude 10° 19:33:10 10° 122° (ESE) 3,736 - -19.7°
Sets 19:36:24 0° 116° (ESE) 4,735 - -20.3°
